Weather History for KMNE - March, 2014

Change the Weather History Date:

Saturday, March 22, 2014

  Actual Average (KSHV) Record (KSHV)
Temperature  
Mean Temperature 65 °F 59 °F  
Max Temperature 73 °F 71 °F 90 °F (1995)
Min Temperature 57 °F 48 °F 29 °F (1986)
Degree Days  
Heating Degree Days 0 7  
Month to date heating degree days 198  
Since 1 July heating degree days 2080  
Cooling Degree Days 0 1  
Month to date cooling degree days 20  
Year to date cooling degree days 30  
Growing Degree Days 15 (Base 50)    
Moisture  
Dew Point 58 °F    
Average Humidity 76    
Maximum Humidity 91    
Minimum Humidity 63    
Precipitation  
Precipitation 0.00 in 0.14 in 1.29 in (1894)
Month to date precipitation 2.91  
Year to date precipitation 11.86  
Snow  
Snow 0.00 in - - ()
Month to date snowfall  
Since 1 July snowfall  
Snow Depth -    
Sea Level Pressure  
Sea Level Pressure 30.01 in    
Wind  
Wind Speed 3 mph (East)    
Max Wind Speed 8 mph    
Max Gust Speed -    
Visibility 9 miles    
Events      
T = Trace of Precipitation, MM = Missing Value Source: NWS Daily Summary

Daily Weather History Graph

Daily Weather History Graph

Search for Another Location

Airport or City:

Trip Planner

Search our weather history database for the weather conditions in past years. The results will help you decide how hot, cold, wet, or windy it might be!

Date:

Astronomy

Mar. 22, 2014 Rise Set
Actual Time 7:14 AM CDT 7:26 PM CDT
Civil Twilight 6:49 AM CDT 7:50 PM CDT
Nautical Twilight 6:21 AM CDT 8:19 PM CDT
Astronomical Twilight 5:52 AM CDT 8:48 PM CDT
Moon 12:30 AM CDT (3/22) 11:13 AM CDT (3/22)
Length of Visible Light 13h 01m
Length of Day
12h 11m
Waning Gibbous, 65% of the Moon is Illuminated
Mar 22
Waning Gibbous
Mar 23
Last Quarter
Mar 30
New
Apr 7
First Quarter
Apr 15
Full

Hourly Weather History & Observations

Time (CDT) Temp. Dew Point Humidity Pressure Visibility Wind Dir Wind Speed Gust Speed Precip Events Conditions
12:15 AM 66.2 °F 54.7 °F 66% 29.98 in 10.0 mi South 5.8 mph - N/A   Mostly Cloudy
12:35 AM 65.5 °F 54.7 °F 68% 29.97 in 10.0 mi South 4.6 mph - N/A   Scattered Clouds
12:55 AM 65.5 °F 54.7 °F 68% 29.97 in 10.0 mi South 5.8 mph - N/A   Clear
1:15 AM 65.3 °F 54.7 °F 68% 29.97 in 10.0 mi SSE 5.8 mph - N/A   Clear
1:35 AM 64.4 °F 54.7 °F 71% 29.97 in 10.0 mi South 3.5 mph - N/A   Clear
1:55 AM 64.4 °F 54.9 °F 71% 29.98 in 10.0 mi SSE 3.5 mph - N/A   Mostly Cloudy
2:15 AM 64.4 °F 55.0 °F 72% 29.98 in 10.0 mi Calm Calm - N/A   Overcast
2:35 AM 63.9 °F 55.4 °F 74% 29.98 in 10.0 mi SSE 3.5 mph - N/A   Overcast
2:55 AM 63.1 °F 55.0 °F 75% 29.98 in 10.0 mi SSE 3.5 mph - N/A   Mostly Cloudy
3:15 AM 62.6 °F 55.4 °F 77% 29.97 in 10.0 mi South 3.5 mph - N/A   Mostly Cloudy
3:35 AM 62.6 °F 55.4 °F 77% 29.97 in 10.0 mi Calm Calm - N/A   Overcast
3:55 AM 61.9 °F 55.4 °F 79% 29.98 in 10.0 mi Calm Calm - N/A   Overcast
4:15 AM 61.7 °F 55.4 °F 80% 29.98 in 10.0 mi SE 3.5 mph - N/A   Mostly Cloudy
4:35 AM 60.8 °F 55.4 °F 82% 29.98 in 10.0 mi Calm Calm - N/A   Scattered Clouds
4:55 AM 59.5 °F 55.4 °F 86% 29.98 in 10.0 mi Calm Calm - N/A   Clear
5:15 AM 59.9 °F 55.4 °F 85% 29.98 in 10.0 mi Calm Calm - N/A   Clear
5:35 AM 58.1 °F 54.7 °F 88% 29.97 in 10.0 mi SE 3.5 mph - N/A   Clear
5:55 AM 58.8 °F 55.2 °F 88% 29.97 in 10.0 mi Calm Calm - N/A   Clear
6:15 AM 57.9 °F 54.9 °F 90% 29.98 in 10.0 mi Calm Calm - N/A   Clear
6:35 AM 57.7 °F 54.9 °F 90% 29.99 in 10.0 mi SSE 3.5 mph - N/A   Scattered Clouds
6:55 AM 59.2 °F 56.1 °F 90% 29.99 in 10.0 mi SE 3.5 mph - N/A   Overcast
7:15 AM 58.6 °F 55.6 °F 90% 30.00 in 10.0 mi Calm Calm - N/A   Overcast
7:35 AM 59.4 °F 56.3 °F 90% 30.01 in 7.0 mi Calm Calm - N/A   Overcast
7:55 AM 59.5 °F 56.3 °F 89% 30.03 in 7.0 mi Calm Calm - N/A   Overcast
8:15 AM 61.0 °F 57.9 °F 90% 30.03 in 7.0 mi Calm Calm - N/A   Overcast
8:35 AM 61.7 °F 58.1 °F 88% 30.05 in 7.0 mi Calm Calm - N/A   Overcast
8:55 AM 61.9 °F 58.8 °F 90% 30.06 in 4.0 mi Calm Calm - N/A   Overcast
9:15 AM 61.5 °F 59.0 °F 91% 30.07 in 1.2 mi SW 3.5 mph - N/A   Overcast
9:35 AM 61.7 °F 59.0 °F 91% 30.07 in 4.0 mi Calm Calm - N/A   Overcast
9:55 AM 63.7 °F 59.2 °F 85% 30.07 in 7.0 mi Calm Calm - N/A   Overcast
10:15 AM 64.9 °F 59.0 °F 81% 30.07 in 7.0 mi West 3.5 mph - N/A   Overcast
10:35 AM 65.8 °F 59.2 °F 79% 30.07 in 7.0 mi SSW 5.8 mph - N/A   Overcast
10:55 AM 67.1 °F 59.4 °F 76% 30.07 in 10.0 mi SW 4.6 mph - N/A   Mostly Cloudy
11:15 AM 67.8 °F 59.2 °F 74% 30.07 in 7.0 mi Calm Calm - N/A   Mostly Cloudy
11:35 AM 70.3 °F 58.8 °F 67% 30.06 in 7.0 mi Calm Calm - N/A   Scattered Clouds
11:55 AM 70.9 °F 59.4 °F 67% 30.05 in 10.0 mi Calm Calm - N/A   Mostly Cloudy
12:15 PM 71.2 °F 59.4 °F 66% 30.05 in 10.0 mi Calm Calm - N/A   Overcast
12:55 PM 70.9 °F 59.2 °F 66% 30.04 in 10.0 mi Calm Calm - N/A   Overcast
1:15 PM 72.5 °F 59.4 °F 63% 30.03 in 10.0 mi ENE 4.6 mph - N/A   Overcast
1:35 PM 71.1 °F 59.4 °F 66% 30.02 in 10.0 mi Calm Calm - N/A   Overcast
1:55 PM 70.3 °F 59.7 °F 69% 30.02 in 10.0 mi NNE 4.6 mph - N/A   Overcast
2:15 PM 70.3 °F 60.3 °F 70% 30.01 in 10.0 mi NE 5.8 mph - N/A   Overcast
2:35 PM 72.9 °F 60.3 °F 65% 30.01 in 10.0 mi NE 4.6 mph - N/A   Scattered Clouds
2:55 PM 73.4 °F 60.1 °F 63% 30.00 in 10.0 mi NE 4.6 mph - N/A   Scattered Clouds
3:15 PM 72.5 °F 59.9 °F 64% 30.00 in 10.0 mi NE 3.5 mph - N/A   Overcast
3:35 PM 71.6 °F 59.5 °F 66% 29.99 in 10.0 mi ENE 5.8 mph - N/A   Overcast
3:55 PM 71.6 °F 59.7 °F 66% 29.99 in 10.0 mi ENE 4.6 mph - N/A   Overcast
4:15 PM 71.1 °F 59.7 °F 67% 29.99 in 10.0 mi NNE 5.8 mph - N/A   Overcast
4:35 PM 70.7 °F 59.5 °F 68% 29.98 in 10.0 mi NNE 4.6 mph - N/A   Overcast
4:55 PM 70.7 °F 59.2 °F 67% 29.99 in 10.0 mi NNE 3.5 mph - N/A   Overcast
5:15 PM 70.5 °F 59.0 °F 67% 29.99 in 10.0 mi NE 5.8 mph - N/A   Overcast
5:35 PM 69.8 °F 59.0 °F 68% 29.98 in 10.0 mi NE 4.6 mph - N/A   Overcast
5:55 PM 70.0 °F 59.0 °F 68% 29.98 in 7.0 mi NE 5.8 mph - N/A   Overcast
6:15 PM 70.0 °F 58.6 °F 67% 29.98 in 10.0 mi ENE 8.1 mph - N/A   Scattered Clouds
6:35 PM 68.9 °F 58.1 °F 68% 29.99 in 10.0 mi East 4.6 mph - N/A   Scattered Clouds
6:55 PM 68.5 °F 58.3 °F 70% 29.98 in 10.0 mi ENE 4.6 mph - N/A   Overcast
7:15 PM 67.8 °F 58.1 °F 71% 29.99 in 10.0 mi Calm Calm - N/A   Overcast
7:35 PM 66.9 °F 58.1 °F 73% 29.99 in 10.0 mi East 4.6 mph - N/A   Overcast
7:55 PM 66.4 °F 58.1 °F 75% 29.99 in 10.0 mi ENE 3.5 mph - N/A   Mostly Cloudy
8:15 PM 66.6 °F 58.1 °F 74% 30.00 in 10.0 mi East 3.5 mph - N/A   Overcast
8:35 PM 66.6 °F 57.9 °F 74% 30.01 in 10.0 mi Calm Calm - N/A   Overcast
8:55 PM 66.2 °F 57.9 °F 75% 30.01 in 10.0 mi East 3.5 mph - N/A   Overcast
9:15 PM 65.7 °F 57.7 °F 76% 30.00 in 10.0 mi Calm Calm - N/A   Overcast
9:35 PM 65.3 °F 57.6 °F 76% 30.00 in 10.0 mi Calm Calm - N/A   Scattered Clouds
9:55 PM 64.9 °F 57.6 °F 77% 30.00 in 10.0 mi East 3.5 mph - N/A   Clear
10:15 PM 64.6 °F 57.4 °F 77% 30.01 in 10.0 mi East 3.5 mph - N/A   Scattered Clouds
10:35 PM 64.6 °F 57.6 °F 78% 30.01 in 10.0 mi Calm Calm - N/A   Overcast
10:55 PM 64.8 °F 57.6 °F 77% 30.02 in 10.0 mi Calm Calm - N/A   Overcast
11:15 PM 64.4 °F 57.4 °F 78% 30.02 in 10.0 mi Calm Calm - N/A   Overcast
11:35 PM 64.6 °F 57.4 °F 77% 30.03 in 10.0 mi Calm Calm - N/A   Overcast
11:55 PM 64.6 °F 57.2 °F 77% 30.03 in 10.0 mi Calm Calm - N/A   Overcast